Showing default

DB-PRECISIONFLIGHTWORKSP, 68466

Orbit data source: Space-Track

DB-PRECISIONFLIGHTWORKSP, 68466 is a payload satellite owned by NearSpaceLaunch (US) in SSO that was launched on Mon, 30 Mar 2026 UTC via an FALCON 9 launch vehicle from the Air Force Western Test Range (AFWTR). Payload-class satellites include a variety of spacecraft equipped with specific instruments for various scientific and technological missions. These include communications satellites like Starlink; space stations such as the ISS; scientific satellites like the Hubble; Earth observation satellites from companies like Planet Labs, Umbra, and HawkEye 360; GPS; miniature CubeSats for education and research; and military/defense satellites.

Loading next visibility...
Identifier
68466, 2026-067BC
Orbit
SSO
Country
Flag of USUS
Related business
Manufacturer
NearSpaceLaunch
Mission
Operational spacecraft
Bus & Motor
THINSAT 0.5U, Unknown motor
Mass
0.5 kg wet, 0.5 kg dry
Launch date (UTC)
2026-03-30 (3 months ago)
Launch vehicle
FALCON 9
Launch site
Air Force Western Test Range (AFWTR)
Object type
Payload
Rocket body
Debris
Shape & HBR
Unknown shape, 0.2 m
Radar Cross Section
Medium (>0.1 m² and <1 m²)

Expand to show TLE details & history
Last TLE update: 2 days ago

TLE from 2 days ago
0 DB-PRECISIONFLIGHTWORKSP
1 68466U 26067BC  26171.42112218  .00006207  00000-0  31154-3 0  9991
2 68466  97.4489 129.6599 0008103  75.6996 284.5137 15.17634976 12279
Epoch: 2026-06-20T10:06Z
TLE epoch observation values (Epoch: 2026-06-20T10:06:24.956Z)
Latitude
-0.00001°
Longitude
69.41993°
Altitude
514.681 km
Speed
7.607 km/s
True Right ascension
08h 38m 38s
True Declination
0° 00' 00"
Sunlit
Object was in daylight at epoch
Visualization orbit readout
Latitude
Unknown
Longitude
Unknown
Altitude
Unknown
Speed
Unknown
Apparent Right ascension
Unknown
Apparent Declination
Unknown
Sunlit
N/A
Visualization observer readout
Local Sidereal Time
14:11:49
Azimuth
Unknown
Elevation
Unknown
Doppler factor
Unknown
Orbital elements
Apogee altitude
515.543 km
Perigee altitude
504.38 km
Semi-major axis
6,888.098 km
Eccentricity
0.00081
Inclination
97.4489°
RAAN
129.6599°
Arg. of periapsis
75.6996°
True anomaly
284.42379°
Mean anomaly
284.5137°
Eccentric anomaly
284.46875°
Mean motion
3.79659 °/min
Orbital period
94.82 mins
BSTAR
0.00031154
Loading maneuver chart data...
Computing Atmospheric mass density...
Loading historical data...
Loading historical data...
Loading historical data...
Loading historical data...
Loading historical data...
Loading historical data...
Loading historical data...

Documentation

Showing up to 5 results
|